Alexandria, Egypt

12:41 PM EET on September 25, 2016 (GMT +0200)
Alexandria International

Weather History for HEAX - June, 2013

Change the Weather History Date:

Saturday, June 8, 2013

  Actual Average Record
Temperature  
Mean Temperature 84 °F -  
Max Temperature 103 °F 80 °F 103 °F (2013)
Min Temperature 66 °F 68 °F 66 °F (2013)
Cooling Degree Days 20    
Growing Degree Days 34 (Base 50)    
Moisture  
Dew Point 61 °F    
Average Humidity 59    
Maximum Humidity 83    
Minimum Humidity 17    
Precipitation  
Precipitation 0.00 in - - ()
Sea Level Pressure  
Sea Level Pressure 29.78 in    
Wind  
Wind Speed 8 mph ()    
Max Wind Speed 23 mph    
Max Gust Speed -    
Visibility 3.3 miles    
Events      
Averages and records for this station are not official NWS values.
T = Trace of Precipitation, MM = Missing Value Source: Averaged Metar Reports

Daily Weather History Graph

Daily Weather History Graph

Search for Another Location

Airport or City:

Trip Planner

Search our weather history database for the weather conditions in past years. The results will help you decide how hot, cold, wet, or windy it might be!

Date:

Astronomy

Jun. 08, 2013 Rise Set
Actual Time 4:55 AM EET 7:02 PM EET
Civil Twilight 4:28 AM EET 7:30 PM EET
Nautical Twilight 3:54 AM EET 8:04 PM EET
Astronomical Twilight 3:18 AM EET 8:40 PM EET
Moon 4:44 AM EET (6/8) 6:53 PM EET (6/8)
Length of Visible Light 15h 02m
Length of Day
14h 07m
Waning Crescent, 0% of the Moon is Illuminated
Jun 8
Waning Crescent
Jun 8
New
Jun 16
First Quarter
Jun 23
Full
Jun 30
Last Quarter

Hourly Weather History & Observations

Time (EET) Temp. Heat Index Dew Point Humidity Pressure Visibility Wind Dir Wind Speed Gust Speed Precip Events Conditions
12:00 AM 73.4 °F - 62.6 °F 69% 29.89 in - SE 3.5 mph - N/A   Clear
1:00 AM 71.6 °F - 60.8 °F 69% 29.86 in - SE 4.6 mph - N/A   Clear
2:00 AM 71 °F - 61 °F 62% 29.83 in 6 mi SSE 3.5 mph - -  
2:00 AM 71.6 °F - 60.8 °F 69% 29.83 in - SSE 3.5 mph - N/A   Clear
3:00 AM 69.8 °F - 59.0 °F 68% 29.80 in - SSE 1.2 mph - N/A   Clear
4:00 AM 68.0 °F - 59.0 °F 73% 29.77 in - SSE 2.3 mph - N/A   Clear
5:00 AM 68.0 °F - 59.0 °F 73% 29.77 in - Calm Calm - N/A   Clear
6:00 AM 68.0 °F - 59.0 °F 73% 29.77 in - South 1.2 mph - N/A   Clear
7:00 AM 69.8 °F - 59.0 °F 68% 29.77 in - South 3.5 mph - N/A   Clear
8:00 AM 72 °F - 56 °F 47% 30.06 in 6 mi South 6.9 mph - -  
8:00 AM 71.6 °F - 55.4 °F 57% 29.74 in - South 6.9 mph - N/A   Clear
9:00 AM 93.2 °F 90.8 °F 53.6 °F 26% 29.74 in - South 6.9 mph - N/A   Clear
9:07 AM 75.2 °F - 53.6 °F 47% 29.74 in - South 6.9 mph - N/A   Clear
10:00 AM 100.4 °F 98.4 °F 53.6 °F 21% 29.74 in 1.2 mi South 20.7 mph - N/A   Sand
11:00 AM 102.2 °F - 50.0 °F 17% 29.74 in 1.2 mi SW 23.0 mph - N/A   Sand
12:00 PM 98.6 °F 96.4 °F 53.6 °F 22% 29.74 in 1.2 mi West 19.6 mph - N/A   Sand
1:00 PM 96.8 °F 95.8 °F 57.2 °F 27% 29.74 in 1.2 mi West 23.0 mph - N/A   Sand
2:00 PM 83 °F - 68 °F 52% 29.76 in 1 mi NW 18.4 mph - -   Blowing Sand
2:00 PM 82.4 °F 85.4 °F 68.0 °F 62% 29.74 in 1.2 mi NW 18.4 mph - N/A   Sand
3:00 PM 82.4 °F 85.4 °F 68.0 °F 62% 29.74 in 1.9 mi NW 16.1 mph - N/A   Sand
4:00 PM 82.4 °F 85.4 °F 68.0 °F 62% 29.74 in 3.7 mi NW 16.1 mph - N/A   Unknown
5:00 PM 80.6 °F 83.9 °F 69.8 °F 70% 29.74 in - NW 12.7 mph - N/A   Clear
6:00 PM 77.0 °F - 68.0 °F 74% 29.74 in - WNW 16.1 mph - N/A   Clear
7:00 PM 75.2 °F - 66.2 °F 73% 29.74 in - WNW 12.7 mph - N/A   Clear
8:00 PM 75 °F - 67 °F 69% 29.75 in 6 mi WNW 11.5 mph - -  
8:00 PM 75.2 °F - 66.2 °F 73% 29.74 in - WNW 11.5 mph - N/A   Clear
9:00 PM 73.4 °F - 68.0 °F 83% 29.77 in - West 18.4 mph - N/A   Clear
10:00 PM 73.4 °F - 66.2 °F 78% 29.77 in 6.2 mi WNW 15.0 mph - N/A   Partly Cloudy
11:00 PM 75.2 °F - 66.2 °F 73% 29.77 in 6.2 mi WNW 15.0 mph - N/A   Scattered Clouds